Weather History for KPIE - February, 2013

Change the Weather History Date:

Sunday, February 3, 2013

  Actual Average Record
Temperature  
Mean Temperature 56 °F -  
Max Temperature 69 °F 71 °F 82 °F (1956)
Min Temperature 44 °F 56 °F 33 °F (1951)
Degree Days  
Heating Degree Days 8    
Growing Degree Days 6 (Base 50)    
Moisture  
Dew Point 47 °F    
Average Humidity 74    
Maximum Humidity 93    
Minimum Humidity 53    
Precipitation  
Precipitation 0.00 in - - ()
Sea Level Pressure  
Sea Level Pressure 30.16 in    
Wind  
Wind Speed 5 mph (NW)    
Max Wind Speed 15 mph    
Max Gust Speed 17 mph    
Visibility 10 miles    
Events      
Averages and records for this station are not official NWS values.
T = Trace of Precipitation, MM = Missing Value Source: NWS Daily Summary

Daily Weather History Graph

Daily Weather History Graph

Search for Another Location

Airport or City:

Trip Planner

Search our weather history database for the weather conditions in past years. The results will help you decide how hot, cold, wet, or windy it might be!

Date:

Astronomy

Feb. 03, 2013 Rise Set
Actual Time 7:16 AM EST 6:13 PM EST
Civil Twilight 6:52 AM EST 6:37 PM EST
Nautical Twilight 6:24 AM EST 7:05 PM EST
Astronomical Twilight 5:56 AM EST 7:33 PM EST
Moon 12:41 AM EST (2/3) 11:52 AM EST (2/3)
Length of Visible Light 11h 45m
Length of Day
10h 56m
Waning Gibbous, 49% of the Moon is Illuminated
Feb 3
Waning Gibbous
Feb 10
New
Feb 17
First Quarter
Feb 25
Full
Mar 4
Last Quarter

Hourly Weather History & Observations

Time (EST) Temp. Windchill Dew Point Humidity Pressure Visibility Wind Dir Wind Speed Gust Speed Precip Events Conditions
12:53 AM 54.0 °F - 44.1 °F 69% 30.18 in 10.0 mi NNW 6.9 mph - N/A   Clear
1:53 AM 54.0 °F - 44.1 °F 69% 30.17 in 10.0 mi North 4.6 mph - N/A   Clear
2:53 AM 53.1 °F - 44.1 °F 71% 30.15 in 10.0 mi North 3.5 mph - N/A   Clear
3:53 AM 48.0 °F - 43.0 °F 83% 30.16 in 10.0 mi NNE 3.5 mph - N/A   Clear
4:53 AM 44.1 °F - 42.1 °F 93% 30.16 in 10.0 mi Calm Calm - N/A   Clear
5:53 AM 45.0 °F - 43.0 °F 93% 30.18 in 10.0 mi Calm Calm - N/A   Clear
6:53 AM 46.9 °F - 44.1 °F 90% 30.19 in 10.0 mi NNE 3.5 mph - N/A   Clear
7:53 AM 45.0 °F - 43.0 °F 93% 30.21 in 10.0 mi Calm Calm - N/A   Clear
8:53 AM 55.9 °F - 48.0 °F 75% 30.22 in 10.0 mi NE 3.5 mph - N/A   Clear
9:53 AM 57.9 °F - 48.0 °F 70% 30.22 in 10.0 mi Calm Calm - N/A   Clear
10:53 AM 61.0 °F - 48.9 °F 64% 30.21 in 10.0 mi Calm Calm - N/A   Clear
11:53 AM 64.0 °F - 50.0 °F 60% 30.20 in 10.0 mi NE 4.6 mph - N/A   Clear
12:53 PM 69.1 °F - 51.1 °F 53% 30.17 in 10.0 mi NNW 15.0 mph - N/A   Clear
1:53 PM 69.1 °F - 51.1 °F 53% 30.14 in 10.0 mi NW 12.7 mph - N/A   Clear
2:53 PM 69.1 °F - 51.1 °F 53% 30.13 in 10.0 mi NW 12.7 mph - N/A   Clear
3:53 PM 69.1 °F - 51.1 °F 53% 30.12 in 10.0 mi WNW 12.7 mph 17.3 mph N/A   Clear
4:53 PM 66.0 °F - 50.0 °F 56% 30.12 in 10.0 mi NW 11.5 mph - N/A   Clear
5:53 PM 62.1 °F - 52.0 °F 70% 30.12 in 10.0 mi NW 9.2 mph - N/A   Clear
6:53 PM 57.0 °F - 51.1 °F 81% 30.12 in 10.0 mi NW 6.9 mph - N/A   Clear
7:53 PM 55.0 °F - 50.0 °F 83% 30.14 in 10.0 mi West 4.6 mph - N/A   Clear
8:53 PM 55.0 °F - 50.0 °F 83% 30.15 in 10.0 mi West 4.6 mph - N/A   Clear
9:53 PM 51.1 °F - 48.9 °F 92% 30.15 in 10.0 mi WNW 3.5 mph - N/A   Clear
10:53 PM 51.1 °F - 43.0 °F 74% 30.14 in 10.0 mi WNW 4.6 mph - N/A   Clear
11:53 PM 46.0 °F 43.9 °F 43.0 °F 89% 30.14 in 10.0 mi SSW 4.6 mph - N/A   Clear